| time (UTC) | temp C | wind direction | speed KPH | gust KPH | rain 1hr cm | rain 24hr cm | rain mn cm | humidity % | barometer mb |
| 20260507043316 | 5 | 151 | 1.6 | 1.6 | 0.00 | 0.00 | 0.00 | 99 | 1019.7 |
| 20260507042813 | 5 | 150 | 1.6 | 1.6 | 0.00 | 0.00 | 0.00 | 98 | 1019.8 |
| 20260507042308 | 5 | 153 | 1.6 | 1.6 | 0.00 | 0.00 | 0.00 | 98 | 1019.7 |
| 20260507041806 | 5 | 163 | 3.2 | 3.2 | 0.00 | 0.00 | 0.00 | 98 | 1019.8 |
| 20260507041302 | 5 | 163 | 3.2 | 3.2 | 0.00 | 0.00 | 0.00 | 98 | 1019.8 |
| 20260507040759 | 5 | 153 | 1.6 | 1.6 | 0.00 | 0.00 | 0.00 | 98 | 1019.9 |
| 20260507040255 | 5 | 153 | 1.6 | 1.6 | 0.00 | 0.00 | 0.00 | 98 | 1019.7 |
| 20260507035751 | 5 | 152 | 0.0 | 0.0 | 0.00 | 0.00 | 0.00 | 98 | 1019.9 |
| 20260507035246 | 5 | 154 | 0.0 | 1.6 | 0.00 | 0.00 | 0.00 | 98 | 1019.8 |
| 20260507034744 | 5 | 161 | 1.6 | 1.6 | 0.00 | 0.00 | 0.00 | 98 | 1019.5 |
| 20260507034241 | 5 | 162 | 1.6 | 1.6 | 0.00 | 0.00 | 0.00 | 97 | 1019.7 |
| 20260507033740 | 5 | 166 | 1.6 | 1.6 | 0.00 | 0.00 | 0.00 | 97 | 1019.5 |
| 20260507033237 | 6 | 163 | 3.2 | 3.2 | 0.00 | 0.00 | 0.00 | 97 | 1019.5 |
| 20260507032734 | 6 | 161 | 3.2 | 3.2 | 0.00 | 0.00 | 0.00 | 97 | 1019.5 |
| 20260507032230 | 6 | 148 | 1.6 | 1.6 | 0.00 | 0.00 | 0.00 | 97 | 1019.6 |
| 20260507031727 | 6 | 156 | 1.6 | 1.6 | 0.00 | 0.00 | 0.00 | 96 | 1019.4 |
| 20260507031223 | 6 | 149 | 1.6 | 1.6 | 0.00 | 0.00 | 0.00 | 96 | 1019.4 |
| 20260507030720 | 6 | 159 | 1.6 | 1.6 | 0.00 | 0.00 | 0.00 | 96 | 1019.4 |
| 20260507030218 | 6 | 156 | 3.2 | 3.2 | 0.00 | 0.00 | 0.00 | 96 | 1019.4 |
| 20260507025715 | 6 | 146 | 0.0 | 0.0 | 0.00 | 0.00 | 0.00 | 96 | 1019.5 |
| 20260507025212 | 6 | 147 | 0.0 | 1.6 | 0.00 | 0.00 | 0.00 | 95 | 1019.3 |
| 20260507024710 | 6 | 157 | 1.6 | 1.6 | 0.00 | 0.00 | 0.00 | 95 | 1019.3 |
| 20260507024207 | 7 | 163 | 1.6 | 1.6 | 0.00 | 0.00 | 0.00 | 95 | 1019.0 |
| 20260507023702 | 7 | 155 | 3.2 | 3.2 | 0.00 | 0.00 | 0.00 | 94 | 1018.9 |
| 20260507023200 | 7 | 144 | 1.6 | 1.6 | 0.00 | 0.00 | 0.00 | 94 | 1018.9 |
| 20260507022656 | 7 | 157 | 1.6 | 1.6 | 0.00 | 0.00 | 0.00 | 93 | 1019.0 |
| 20260507022152 | 7 | 158 | 1.6 | 1.6 | 0.00 | 0.00 | 0.00 | 93 | 1018.6 |
| 20260507021649 | 7 | 142 | 1.6 | 1.6 | 0.00 | 0.00 | 0.00 | 92 | 1018.8 |
| 20260507021144 | 7 | 143 | 0.0 | 1.6 | 0.00 | 0.00 | 0.00 | 92 | 1018.9 |
| 20260507020643 | 8 | 143 | 0.0 | 0.0 | 0.00 | 0.00 | 0.00 | 91 | 1018.9 |
| 20260507020138 | 8 | 151 | 1.6 | 1.6 | 0.00 | 0.00 | 0.00 | 91 | 1018.7 |
| 20260507015637 | 8 | 163 | 3.2 | 3.2 | 0.00 | 0.00 | 0.00 | 90 | 1018.6 |
| 20260507015134 | 8 | 159 | 1.6 | 1.6 | 0.00 | 0.00 | 0.00 | 89 | 1018.5 |
| 20260507014631 | 8 | 160 | 1.6 | 1.6 | 0.00 | 0.00 | 0.00 | 88 | 1018.4 |
| 20260507014126 | 9 | 158 | 1.6 | 3.2 | 0.00 | 0.00 | 0.00 | 87 | 1018.6 |
| 20260507013624 | 9 | 147 | 1.6 | 1.6 | 0.00 | 0.00 | 0.00 | 85 | 1018.4 |
| 20260507013120 | 10 | 164 | 1.6 | 3.2 | 0.00 | 0.00 | 0.00 | 84 | 1018.3 |
| 20260507012618 | 10 | 150 | 1.6 | 1.6 | 0.00 | 0.00 | 0.00 | 83 | 1018.4 |
| 20260507012113 | 10 | 133 | 1.6 | 1.6 | 0.00 | 0.00 | 0.00 | 82 | 1018.2 |
| 20260507011612 | 10 | 136 | 1.6 | 3.2 | 0.00 | 0.00 | 0.00 | 80 | 1018.3 |
| 20260507011108 | 11 | 74 | 1.6 | 3.2 | 0.00 | 0.00 | 0.00 | 78 | 1018.3 |
| 20260507010603 | 11 | 50 | 1.6 | 1.6 | 0.00 | 0.00 | 0.00 | 76 | 1018.0 |
| 20260507010058 | 11 | 63 | 1.6 | 1.6 | 0.00 | 0.00 | 0.00 | 74 | 1018.1 |
| 20260507005556 | 12 | 55 | 1.6 | 1.6 | 0.00 | 0.00 | 0.00 | 73 | 1018.1 |
| 20260507005052 | 12 | 57 | 1.6 | 1.6 | 0.00 | 0.00 | 0.00 | 71 | 1017.9 |
| 20260507004549 | 13 | 44 | 1.6 | 1.6 | 0.00 | 0.00 | 0.00 | 70 | 1017.8 |
| 20260507004047 | 13 | 348 | 0.0 | 0.0 | 0.00 | 0.00 | 0.00 | 67 | 1017.7 |
| 20260507003542 | 13 | 347 | 1.6 | 1.6 | 0.00 | 0.00 | 0.00 | 62 | 1017.9 |
| 20260507003038 | 14 | 343 | 0.0 | 1.6 | 0.00 | 0.00 | 0.00 | 59 | 1017.7 |
| 20260507002535 | 14 | 299 | 1.6 | 1.6 | 0.00 | 0.00 | 0.00 | 55 | 1017.7 |
| 20260507002030 | 15 | 320 | 1.6 | 1.6 | 0.00 | 0.00 | 0.00 | 54 | 1017.4 |
| 20260507001527 | 15 | 325 | 0.0 | 0.0 | 0.00 | 0.00 | 0.00 | 53 | 1017.6 |
| 20260507001025 | 15 | 292 | 3.2 | 4.8 | 0.00 | 0.00 | 0.00 | 52 | 1017.7 |
| 20260507000521 | 16 | 350 | 6.4 | 8.0 | 0.00 | 0.00 | 0.00 | 51 | 1017.7 |
| 20260507000016 | 16 | 338 | 1.6 | 1.6 | 0.00 | 0.00 | 0.00 | 53 | 1017.5 |
| 20260506235514 | 16 | 352 | 1.6 | 3.2 | 0.00 | 0.00 | 0.00 | 52 | 1017.4 |
| 20260506235009 | 16 | 334 | 1.6 | 1.6 | 0.00 | 0.00 | 0.00 | 53 | 1017.3 |
| 20260506234507 | 16 | 325 | 4.8 | 4.8 | 0.00 | 0.00 | 0.00 | 54 | 1017.5 |
| 20260506234004 | 15 | 282 | 4.8 | 4.8 | 0.00 | 0.00 | 0.00 | 53 | 1017.5 |
| 20260506233500 | 15 | 358 | 3.2 | 3.2 | 0.00 | 0.00 | 0.00 | 53 | 1017.5 |
| 20260506232957 | 15 | 312 | 8.0 | 9.7 | 0.00 | 0.00 | 0.00 | 54 | 1017.6 |
| 20260506232454 | 15 | 324 | 4.8 | 8.0 | 0.00 | 0.00 | 0.00 | 53 | 1017.3 |
| 20260506231949 | 15 | 319 | 4.8 | 4.8 | 0.00 | 0.00 | 0.00 | 55 | 1017.3 |
| 20260506231447 | 15 | 301 | 8.0 | 8.0 | 0.00 | 0.00 | 0.00 | 53 | 1017.2 |
| 20260506230944 | 15 | 341 | 4.8 | 8.0 | 0.00 | 0.00 | 0.00 | 53 | 1017.2 |
| 20260506230440 | 15 | 337 | 3.2 | 3.2 | 0.00 | 0.00 | 0.00 | 53 | 1017.0 |
| 20260506225937 | 15 | 301 | 9.7 | 12.9 | 0.00 | 0.00 | 0.00 | 52 | 1016.9 |
| 20260506225435 | 16 | 305 | 8.0 | 9.7 | 0.00 | 0.00 | 0.00 | 52 | 1016.6 |
| 20260506224931 | 16 | 306 | 8.0 | 9.7 | 0.00 | 0.00 | 0.00 | 54 | 1016.6 |
| 20260506224429 | 16 | 344 | 1.6 | 1.6 | 0.00 | 0.00 | 0.00 | 52 | 1016.7 |
| 20260506223925 | 16 | 338 | 1.6 | 1.6 | 0.00 | 0.00 | 0.00 | 55 | 1016.6 |
| 20260506223420 | 16 | 320 | 4.8 | 9.7 | 0.00 | 0.00 | 0.00 | 55 | 1016.8 |
| 20260506222918 | 16 | 179 | 6.4 | 8.0 | 0.00 | 0.00 | 0.00 | 54 | 1016.4 |
| 20260506222414 | 16 | 342 | 1.6 | 3.2 | 0.00 | 0.00 | 0.00 | 54 | 1016.4 |
| 20260506221911 | 16 | 205 | 1.6 | 1.6 | 0.00 | 0.00 | 0.00 | 54 | 1016.6 |
| 20260506221408 | 17 | 354 | 1.6 | 1.6 | 0.00 | 0.00 | 0.00 | 55 | 1016.5 |
| 20260506220906 | 17 | 285 | 4.8 | 4.8 | 0.00 | 0.00 | 0.00 | 53 | 1016.6 |
| 20260506220401 | 17 | 109 | 1.6 | 3.2 | 0.00 | 0.00 | 0.00 | 53 | 1016.5 |
| 20260506215858 | 17 | 5 | 1.6 | 3.2 | 0.00 | 0.00 | 0.00 | 55 | 1016.7 |
| 20260506215354 | 17 | 35 | 3.2 | 3.2 | 0.00 | 0.00 | 0.00 | 54 | 1016.7 |
| 20260506214850 | 17 | 314 | 8.0 | 11.3 | 0.00 | 0.00 | 0.00 | 56 | 1016.7 |
| 20260506214347 | 17 | 17 | 4.8 | 4.8 | 0.00 | 0.00 | 0.00 | 56 | 1016.7 |
| 20260506213845 | 16 | 31 | 0.0 | 1.6 | 0.00 | 0.00 | 0.00 | 56 | 1016.9 |
| 20260506213342 | 16 | 262 | 4.8 | 4.8 | 0.00 | 0.00 | 0.00 | 54 | 1017.1 |
| 20260506212839 | 17 | 244 | 4.8 | 8.0 | 0.00 | 0.00 | 0.00 | 53 | 1016.8 |
| 20260506212336 | 16 | 289 | 3.2 | 3.2 | 0.00 | 0.00 | 0.00 | 57 | 1016.7 |
| 20260506211830 | 16 | 320 | 3.2 | 4.8 | 0.00 | 0.00 | 0.00 | 54 | 1017.0 |
| 20260506211327 | 17 | 297 | 6.4 | 8.0 | 0.00 | 0.00 | 0.00 | 55 | 1017.2 |
| 20260506210824 | 16 | 354 | 11.3 | 12.9 | 0.00 | 0.00 | 0.00 | 56 | 1016.9 |
| 20260506210321 | 16 | 321 | 8.0 | 9.7 | 0.00 | 0.00 | 0.00 | 58 | 1017.1 |
| 20260506205818 | 16 | 301 | 3.2 | 3.2 | 0.00 | 0.00 | 0.00 | 57 | 1017.2 |
| 20260506205314 | 16 | 310 | 14.5 | 16.1 | 0.00 | 0.00 | 0.00 | 55 | 1017.3 |
| 20260506204810 | 17 | 21 | 1.6 | 1.6 | 0.00 | 0.00 | 0.00 | 57 | 1017.0 |
| 20260506204308 | 16 | 125 | 4.8 | 4.8 | 0.00 | 0.00 | 0.00 | 59 | 1017.2 |
| 20260506203806 | 16 | 9 | 4.8 | 4.8 | 0.00 | 0.00 | 0.00 | 58 | 1017.4 |
| 20260506203303 | 16 | 214 | 4.8 | 4.8 | 0.00 | 0.00 | 0.00 | 56 | 1017.6 |
| 20260506202800 | 16 | 157 | 3.2 | 3.2 | 0.00 | 0.00 | 0.00 | 60 | 1017.4 |
| 20260506202257 | 16 | 334 | 8.0 | 9.7 | 0.00 | 0.00 | 0.00 | 59 | 1017.7 |
| 20260506201753 | 16 | 79 | 4.8 | 8.0 | 0.00 | 0.00 | 0.00 | 60 | 1017.9 |
| 20260506201250 | 16 | 338 | 6.4 | 8.0 | 0.00 | 0.00 | 0.00 | 60 | 1017.6 |
| 20260506200747 | 15 | 342 | 0.0 | 0.0 | 0.00 | 0.00 | 0.00 | 61 | 1017.7 |
| 20260506200243 | 15 | 333 | 1.6 | 1.6 | 0.00 | 0.00 | 0.00 | 61 | 1017.9 |
| 20260506195740 | 15 | 316 | 1.6 | 3.2 | 0.00 | 0.00 | 0.00 | 61 | 1017.7 |
| 20260506195236 | 16 | 29 | 4.8 | 8.0 | 0.00 | 0.00 | 0.00 | 59 | 1018.1 |
| 20260506194734 | 15 | 6 | 1.6 | 3.2 | 0.00 | 0.00 | 0.00 | 63 | 1017.7 |
| 20260506194230 | 15 | 275 | 4.8 | 4.8 | 0.00 | 0.00 | 0.00 | 65 | 1018.2 |
| 20260506193728 | 15 | 309 | 9.7 | 12.9 | 0.00 | 0.00 | 0.00 | 61 | 1018.0 |
| 20260506193225 | 15 | 334 | 8.0 | 9.7 | 0.00 | 0.00 | 0.00 | 64 | 1017.9 |
| 20260506192721 | 15 | 6 | 6.4 | 8.0 | 0.00 | 0.00 | 0.00 | 62 | 1018.0 |
| 20260506192218 | 15 | 119 | 3.2 | 4.8 | 0.00 | 0.00 | 0.00 | 62 | 1018.4 |
| 20260506191715 | 15 | 323 | 8.0 | 8.0 | 0.00 | 0.00 | 0.00 | 62 | 1018.0 |
| 20260506191210 | 15 | 350 | 1.6 | 1.6 | 0.00 | 0.00 | 0.00 | 62 | 1018.1 |
| 20260506190708 | 15 | 339 | 6.4 | 8.0 | 0.00 | 0.00 | 0.00 | 62 | 1018.2 |
| 20260506190205 | 15 | 320 | 8.0 | 9.7 | 0.00 | 0.00 | 0.00 | 62 | 1018.1 |
| 20260506185702 | 16 | 26 | 6.4 | 9.7 | 0.00 | 0.00 | 0.00 | 61 | 1018.2 |
| 20260506185158 | 15 | 24 | 3.2 | 3.2 | 0.00 | 0.00 | 0.00 | 61 | 1018.3 |
| 20260506184650 | 15 | 210 | 4.8 | 8.0 | 0.00 | 0.00 | 0.00 | 60 | 1018.0 |
| 20260506184147 | 16 | 333 | 4.8 | 4.8 | 0.00 | 0.00 | 0.00 | 59 | 1018.4 |
| 20260506183644 | 16 | 304 | 12.9 | 16.1 | 0.00 | 0.00 | 0.00 | 58 | 1018.3 |
| 20260506183140 | 16 | 325 | 3.2 | 3.2 | 0.00 | 0.00 | 0.00 | 61 | 1018.4 |
| 20260506182637 | 15 | 295 | 1.6 | 1.6 | 0.00 | 0.00 | 0.00 | 62 | 1018.5 |
| 20260506182134 | 15 | 329 | 9.7 | 11.3 | 0.00 | 0.00 | 0.00 | 61 | 1018.8 |
| 20260506181632 | 15 | 1 | 4.8 | 4.8 | 0.00 | 0.00 | 0.00 | 61 | 1019.1 |
| 20260506181129 | 15 | 311 | 4.8 | 4.8 | 0.00 | 0.00 | 0.00 | 60 | 1019.6 |
| 20260506180626 | 15 | 28 | 6.4 | 11.3 | 0.00 | 0.00 | 0.00 | 62 | 1019.4 |
| 20260506180122 | 15 | 327 | 1.6 | 1.6 | 0.00 | 0.00 | 0.00 | 64 | 1019.5 |
| 20260506175619 | 14 | 306 | 11.3 | 12.9 | 0.00 | 0.00 | 0.00 | 63 | 1019.6 |
| 20260506175114 | 14 | 290 | 4.8 | 4.8 | 0.00 | 0.00 | 0.00 | 64 | 1019.8 |
| 20260506174614 | 15 | 297 | 3.2 | 8.0 | 0.00 | 0.00 | 0.00 | 64 | 1019.9 |
| 20260506174110 | 15 | 68 | 1.6 | 1.6 | 0.00 | 0.00 | 0.00 | 63 | 1019.7 |
| 20260506173608 | 14 | 306 | 1.6 | 3.2 | 0.00 | 0.00 | 0.00 | 62 | 1019.7 |
| 20260506173104 | 14 | 334 | 6.4 | 8.0 | 0.00 | 0.00 | 0.00 | 67 | 1020.1 |
| 20260506172602 | 13 | 6 | 8.0 | 9.7 | 0.00 | 0.00 | 0.00 | 66 | 1019.9 |
| 20260506172057 | 13 | 312 | 9.7 | 12.9 | 0.00 | 0.00 | 0.00 | 66 | 1020.0 |
| 20260506171555 | 13 | 345 | 9.7 | 12.9 | 0.00 | 0.00 | 0.00 | 68 | 1020.0 |
| 20260506171052 | 13 | 311 | 11.3 | 16.1 | 0.00 | 0.00 | 0.00 | 67 | 1019.7 |
| 20260506170544 | 14 | 325 | 4.8 | 4.8 | 0.00 | 0.00 | 0.00 | 67 | 1019.7 |
| 20260506170041 | 13 | 304 | 9.7 | 11.3 | 0.00 | 0.00 | 0.00 | 68 | 1019.8 |
| 20260506165540 | 14 | 337 | 11.3 | 12.9 | 0.00 | 0.00 | 0.00 | 66 | 1019.8 |
| 20260506165036 | 14 | 355 | 8.0 | 9.7 | 0.00 | 0.00 | 0.00 | 66 | 1019.8 |
| 20260506164533 | 13 | 1 | 8.0 | 9.7 | 0.00 | 0.00 | 0.00 | 67 | 1019.6 |
| 20260506164030 | 13 | 320 | 9.7 | 12.9 | 0.00 | 0.00 | 0.00 | 65 | 1019.6 |
| 20260506163526 | 13 | 187 | 1.6 | 1.6 | 0.00 | 0.00 | 0.00 | 68 | 1019.6 |
| 20260506163022 | 13 | 320 | 3.2 | 3.2 | 0.00 | 0.00 | 0.00 | 68 | 1019.4 |
| 20260506162518 | 13 | 339 | 8.0 | 9.7 | 0.00 | 0.00 | 0.00 | 67 | 1019.5 |
| 20260506162015 | 13 | 346 | 11.3 | 14.5 | 0.00 | 0.00 | 0.00 | 65 | 1019.1 |
| 20260506161513 | 13 | 347 | 3.2 | 4.8 | 0.00 | 0.00 | 0.00 | 69 | 1018.8 |
| 20260506161010 | 13 | 313 | 11.3 | 12.9 | 0.00 | 0.00 | 0.00 | 68 | 1018.7 |
| 20260506160508 | 13 | 207 | 3.2 | 4.8 | 0.00 | 0.00 | 0.00 | 70 | 1018.6 |
| 20260506160005 | 13 | 268 | 6.4 | 9.7 | 0.00 | 0.00 | 0.00 | 67 | 1018.6 |
| 20260506155502 | 13 | 295 | 4.8 | 4.8 | 0.00 | 0.00 | 0.00 | 69 | 1018.4 |
| 20260506153634 | 12 | 310 | 4.8 | 8.0 | 0.00 | 0.00 | 0.00 | 73 | 1018.8 |
| 20260506153132 | 11 | 224 | 8.0 | 9.7 | 0.00 | 0.00 | 0.00 | 74 | 1018.9 |
| 20260506152628 | 11 | 321 | 9.7 | 12.9 | 0.00 | 0.00 | 0.00 | 74 | 1018.8 |
| 20260506152126 | 11 | 325 | 6.4 | 8.0 | 0.00 | 0.00 | 0.00 | 75 | 1018.8 |
| 20260506151625 | 11 | 16 | 12.9 | 17.7 | 0.00 | 0.00 | 0.00 | 74 | 1018.4 |
| 20260506151121 | 11 | 241 | 9.7 | 11.3 | 0.00 | 0.00 | 0.00 | 74 | 1018.4 |
| 20260506150618 | 11 | 280 | 4.8 | 9.7 | 0.00 | 0.00 | 0.00 | 75 | 1018.5 |
| 20260506150115 | 11 | 225 | 11.3 | 12.9 | 0.00 | 0.00 | 0.00 | 77 | 1018.4 |
| 20260506145612 | 11 | 302 | 4.8 | 4.8 | 0.00 | 0.00 | 0.00 | 80 | 1018.4 |
| 20260506145109 | 10 | 253 | 6.4 | 9.7 | 0.00 | 0.00 | 0.00 | 79 | 1018.3 |
| 20260506144606 | 10 | 287 | 1.6 | 3.2 | 0.00 | 0.00 | 0.00 | 80 | 1018.7 |
| 20260506144102 | 10 | 342 | 4.8 | 4.8 | 0.00 | 0.00 | 0.00 | 81 | 1018.7 |
| 20260506143601 | 10 | 49 | 1.6 | 1.6 | 0.00 | 0.00 | 0.00 | 81 | 1018.8 |
| 20260506143058 | 10 | 344 | 1.6 | 1.6 | 0.00 | 0.00 | 0.00 | 81 | 1018.8 |
| 20260506142556 | 10 | 323 | 0.0 | 1.6 | 0.00 | 0.00 | 0.00 | 82 | 1018.7 |
| 20260506142054 | 10 | 316 | 3.2 | 4.8 | 0.00 | 0.00 | 0.00 | 82 | 1018.8 |
| 20260506141551 | 9 | 283 | 3.2 | 4.8 | 0.00 | 0.00 | 0.00 | 82 | 1018.9 |
| 20260506141050 | 10 | 344 | 3.2 | 4.8 | 0.00 | 0.00 | 0.00 | 84 | 1018.7 |
| 20260506140547 | 10 | 59 | 1.6 | 1.6 | 0.00 | 0.00 | 0.00 | 84 | 1018.9 |
| 20260506140044 | 10 | 332 | 3.2 | 3.2 | 0.00 | 0.00 | 0.00 | 85 | 1018.6 |
| 20260506135541 | 9 | 61 | 1.6 | 1.6 | 0.00 | 0.00 | 0.00 | 84 | 1018.8 |
| 20260506135037 | 9 | 282 | 8.0 | 11.3 | 0.00 | 0.00 | 0.00 | 85 | 1018.8 |
| 20260506134534 | 9 | 315 | 11.3 | 14.5 | 0.00 | 0.00 | 0.00 | 85 | 1018.7 |
| 20260506134029 | 9 | 211 | 8.0 | 12.9 | 0.00 | 0.00 | 0.00 | 87 | 1018.2 |
| 20260506133527 | 8 | 249 | 1.6 | 8.0 | 0.00 | 0.00 | 0.00 | 87 | 1018.8 |
| 20260506133024 | 8 | 324 | 4.8 | 8.0 | 0.00 | 0.00 | 0.00 | 87 | 1019.1 |
| 20260506132521 | 8 | 316 | 9.7 | 11.3 | 0.00 | 0.00 | 0.00 | 88 | 1019.0 |
| 20260506132018 | 8 | 170 | 6.4 | 11.3 | 0.00 | 0.00 | 0.00 | 88 | 1018.7 |
| 20260506131515 | 8 | 9 | 1.6 | 3.2 | 0.00 | 0.00 | 0.00 | 89 | 1018.8 |
| 20260506131012 | 8 | 357 | 4.8 | 8.0 | 0.00 | 0.00 | 0.00 | 90 | 1018.2 |
| 20260506130508 | 8 | 348 | 4.8 | 4.8 | 0.00 | 0.00 | 0.00 | 90 | 1018.4 |
| 20260506130006 | 8 | 26 | 3.2 | 4.8 | 0.00 | 0.00 | 0.00 | 91 | 1018.4 |
| 20260506125504 | 8 | 307 | 3.2 | 3.2 | 0.00 | 0.00 | 0.00 | 91 | 1018.5 |
| 20260506125001 | 8 | 324 | 8.0 | 11.3 | 0.00 | 0.00 | 0.00 | 91 | 1018.1 |
| 20260506124459 | 8 | 294 | 4.8 | 4.8 | 0.00 | 0.00 | 0.00 | 91 | 1017.9 |
| 20260506123957 | 8 | 297 | 4.8 | 4.8 | 0.00 | 0.00 | 0.00 | 92 | 1017.8 |
| 20260506123454 | 8 | 2 | 3.2 | 3.2 | 0.00 | 0.00 | 0.00 | 92 | 1018.1 |
| 20260506122952 | 7 | 351 | 1.6 | 1.6 | 0.00 | 0.00 | 0.00 | 92 | 1018.2 |
| 20260506122449 | 7 | 293 | 9.7 | 11.3 | 0.00 | 0.00 | 0.00 | 93 | 1018.2 |
| 20260506121947 | 7 | 322 | 4.8 | 4.8 | 0.00 | 0.00 | 0.00 | 93 | 1018.2 |
| 20260506121444 | 7 | 344 | 4.8 | 4.8 | 0.00 | 0.00 | 0.00 | 93 | 1018.3 |
| 20260506120940 | 7 | 334 | 3.2 | 3.2 | 0.00 | 0.00 | 0.00 | 93 | 1018.3 |
| 20260506120438 | 7 | 313 | 9.7 | 12.9 | 0.00 | 0.00 | 0.00 | 93 | 1018.0 |
| 20260506115935 | 7 | 322 | 6.4 | 8.0 | 0.00 | 0.00 | 0.00 | 93 | 1018.0 |
| 20260506115433 | 7 | 335 | 6.4 | 8.0 | 0.00 | 0.00 | 0.00 | 93 | 1017.8 |
| 20260506114931 | 7 | 308 | 4.8 | 8.0 | 0.00 | 0.00 | 0.00 | 93 | 1017.9 |
| 20260506114428 | 7 | 327 | 8.0 | 8.0 | 0.00 | 0.00 | 0.00 | 94 | 1017.7 |
| 20260506113927 | 7 | 357 | 1.6 | 3.2 | 0.00 | 0.00 | 0.00 | 93 | 1018.1 |
| 20260506113424 | 7 | 346 | 0.0 | 0.0 | 0.00 | 0.00 | 0.00 | 93 | 1017.9 |
| 20260506112915 | 7 | 333 | 3.2 | 4.8 | 0.00 | 0.00 | 0.00 | 93 | 1017.9 |
| 20260506112413 | 7 | 338 | 1.6 | 3.2 | 0.00 | 0.00 | 0.00 | 93 | 1017.7 |
| 20260506111910 | 7 | 311 | 4.8 | 4.8 | 0.00 | 0.00 | 0.00 | 93 | 1017.5 |
| 20260506111408 | 7 | 326 | 3.2 | 3.2 | 0.00 | 0.00 | 0.00 | 93 | 1017.6 |
| 20260506110905 | 7 | 327 | 1.6 | 3.2 | 0.00 | 0.00 | 0.00 | 93 | 1017.5 |
| 20260506110402 | 7 | 335 | 4.8 | 4.8 | 0.00 | 0.00 | 0.00 | 93 | 1017.6 |
| 20260506105859 | 7 | 323 | 4.8 | 4.8 | 0.00 | 0.00 | 0.00 | 94 | 1017.2 |
| 20260506105355 | 7 | 332 | 3.2 | 3.2 | 0.00 | 0.00 | 0.00 | 94 | 1017.2 |
| 20260506104853 | 7 | 346 | 1.6 | 1.6 | 0.00 | 0.00 | 0.00 | 94 | 1017.0 |
| 20260506104350 | 7 | 337 | 3.2 | 3.2 | 0.00 | 0.00 | 0.00 | 94 | 1016.7 |
| 20260506103848 | 7 | 344 | 0.0 | 1.6 | 0.00 | 0.00 | 0.00 | 94 | 1016.7 |
| 20260506103345 | 7 | 331 | 4.8 | 4.8 | 0.00 | 0.00 | 0.00 | 94 | 1016.7 |
| 20260506102842 | 7 | 347 | 1.6 | 1.6 | 0.00 | 0.00 | 0.00 | 94 | 1016.8 |
| 20260506102340 | 7 | 320 | 4.8 | 4.8 | 0.00 | 0.00 | 0.00 | 94 | 1016.4 |
| 20260506101837 | 7 | 358 | 0.0 | 0.0 | 0.00 | 0.00 | 0.00 | 94 | 1016.4 |
| 20260506101333 | 7 | 331 | 3.2 | 3.2 | 0.00 | 0.00 | 0.00 | 94 | 1016.2 |
| 20260506100831 | 7 | 350 | 4.8 | 4.8 | 0.00 | 0.00 | 0.00 | 94 | 1015.8 |
| 20260506100329 | 7 | 346 | 0.0 | 0.0 | 0.00 | 0.00 | 0.00 | 94 | 1015.7 |
| 20260506095827 | 7 | 341 | 1.6 | 3.2 | 0.00 | 0.00 | 0.00 | 94 | 1015.6 |
| 20260506095324 | 7 | 344 | 3.2 | 4.8 | 0.00 | 0.00 | 0.00 | 94 | 1015.7 |
| 20260506094821 | 7 | 348 | 1.6 | 3.2 | 0.00 | 0.00 | 0.00 | 94 | 1015.4 |
| 20260506094320 | 7 | 334 | 3.2 | 3.2 | 0.00 | 0.00 | 0.00 | 94 | 1015.1 |
| 20260506093818 | 7 | 341 | 1.6 | 1.6 | 0.00 | 0.00 | 0.00 | 95 | 1015.2 |
| 20260506093314 | 7 | 339 | 0.0 | 1.6 | 0.00 | 0.00 | 0.00 | 95 | 1015.1 |
| 20260506092812 | 7 | 339 | 1.6 | 1.6 | 0.00 | 0.00 | 0.00 | 95 | 1015.2 |
| 20260506092310 | 7 | 304 | 1.6 | 1.6 | 0.00 | 0.00 | 0.00 | 95 | 1014.8 |
| 20260506091807 | 7 | 320 | 0.0 | 1.6 | 0.00 | 0.00 | 0.00 | 95 | 1014.7 |
| 20260506091304 | 7 | 336 | 0.0 | 1.6 | 0.00 | 0.00 | 0.00 | 96 | 1015.0 |
| 20260506090802 | 7 | 323 | 0.0 | 1.6 | 0.00 | 0.00 | 0.00 | 96 | 1014.7 |
| 20260506090259 | 7 | 321 | 0.0 | 0.0 | 0.00 | 0.00 | 0.00 | 96 | 1014.5 |
| 20260506085755 | 7 | 305 | 1.6 | 1.6 | 0.00 | 0.00 | 0.00 | 96 | 1014.6 |
| 20260506085252 | 7 | 259 | 1.6 | 1.6 | 0.00 | 0.00 | 0.00 | 96 | 1014.6 |
| 20260506084748 | 7 | 313 | 1.6 | 1.6 | 0.00 | 0.00 | 0.00 | 96 | 1014.8 |
| 20260506084245 | 7 | 324 | 1.6 | 1.6 | 0.00 | 0.00 | 0.00 | 97 | 1014.6 |
| 20260506083742 | 7 | 351 | 0.0 | 0.0 | 0.00 | 0.00 | 0.00 | 96 | 1014.7 |
| 20260506083240 | 7 | 349 | 1.6 | 1.6 | 0.00 | 0.00 | 0.00 | 97 | 1015.0 |
| 20260506082737 | 7 | 348 | 0.0 | 1.6 | 0.00 | 0.00 | 0.00 | 97 | 1014.7 |
| 20260506082232 | 7 | 332 | 1.6 | 3.2 | 0.00 | 0.00 | 0.00 | 97 | 1014.6 |
| 20260506081730 | 7 | 350 | 1.6 | 1.6 | 0.00 | 0.00 | 0.00 | 97 | 1014.8 |
| 20260506081227 | 7 | 340 | 1.6 | 3.2 | 0.00 | 0.00 | 0.00 | 97 | 1014.6 |
| 20260506080726 | 7 | 331 | 0.0 | 0.0 | 0.00 | 0.00 | 0.00 | 96 | 1014.6 |
| 20260506080221 | 7 | 339 | 0.0 | 1.6 | 0.00 | 0.00 | 0.00 | 97 | 1014.3 |
| 20260506073206 | 7 | 222 | 3.2 | 3.2 | 0.00 | 0.00 | 0.00 | 98 | 1013.4 |
| 20260506072702 | 7 | 285 | 0.0 | 0.0 | 0.00 | 0.00 | 0.00 | 98 | 1013.7 |
| 20260506072200 | 7 | 29 | 1.6 | 3.2 | 0.00 | 0.00 | 0.00 | 99 | 1013.7 |
| 20260506071657 | 7 | 275 | 3.2 | 3.2 | 0.00 | 0.00 | 0.00 | 99 | 1013.4 |
| 20260506071155 | 7 | 284 | 4.8 | 4.8 | 0.00 | 0.00 | 0.00 | 99 | 1013.8 |
| 20260506070652 | 7 | 261 | 6.4 | 8.0 | 0.00 | 0.00 | 0.00 | 99 | 1013.9 |
| 20260506070148 | 7 | 308 | 1.6 | 3.2 | 0.00 | 0.00 | 0.00 | 99 | 1014.1 |
| 20260506062126 | 7 | 326 | 6.4 | 9.7 | 0.00 | 0.00 | 0.00 | 99 | 1014.3 |
| 20260506061621 | 7 | 319 | 8.0 | 12.9 | 0.00 | 0.00 | 0.00 | 99 | 1014.2 |
| 20260506061120 | 7 | 314 | 6.4 | 9.7 | 0.00 | 0.00 | 0.00 | 99 | 1014.3 |
| 20260506060618 | 7 | 335 | 6.4 | 8.0 | 0.00 | 0.00 | 0.00 | 99 | 1013.9 |
| 20260506060114 | 7 | 9 | 4.8 | 4.8 | 0.00 | 0.00 | 0.00 | 99 | 1014.2 |
| 20260506051046 | 7 | 321 | 6.4 | 8.0 | 0.00 | 0.00 | 0.00 | 99 | 1014.8 |
| 20260506050544 | 7 | 30 | 1.6 | 3.2 | 0.00 | 0.00 | 0.00 | 99 | 1014.6 |
| 20260506045035 | 7 | 309 | 1.6 | 1.6 | 0.00 | 0.00 | 0.00 | 99 | 1014.3 |
| 20260506044533 | 7 | 341 | 1.6 | 1.6 | 0.00 | 0.00 | 0.00 | 99 | 1014.4 |
| 20260506044029 | 7 | 332 | 4.8 | 4.8 | 0.00 | 0.00 | 0.00 | 99 | 1014.3 |
| 20260506043526 | 7 | 332 | 4.8 | 4.8 | 0.00 | 0.00 | 0.00 | 99 | 1014.1 |